Location: Little Chesterford
(52.0500°N, 0.1833°E)
Time: 13:12:38
(UTC+00:00)

Cosmos 1470 Rocket - Pass Details

Date: 26 September 2023
Orbit: 600 x 632 km, 82.5° (Epoch: 29 November)

Event Time Altitude Azimuth Distance (km) Brightness Sun altitude
Rises 19:22:11 0° 202° (SSW) 2,858 7.0 -15.0°
Reaches altitude 10° 19:24:26 10° 207° (SSW) 1,963 6.2 -15.3°
Maximum altitude 19:28:41 53° 285° (WNW) 764 4.4 -15.9°
Drops below altitude 10° 19:33:01 10° 3° (N) 1,999 6.4 -16.5°
Sets 19:35:19 0° 8° (N) 2,915 7.2 -16.9°
